Starlink 11201

operational
NORAD ID: 60113 Int'l Des: 2024-118 Owner: SPXS Country: US Constellation: starlink
LEOCIRCULAR

关于 Starlink 11201

正在加载描述...

实时位置

正在加载3D地球...

即将过境

高度历史

Altitude vs Time

uPlot chart will show altitude changes over time

两行轨道根数

1 60113U 24118A 25351.20361126 -.00004213 00000-0 -29935-4 0 9998
2 60113 53.1586 268.2049 0001210 82.4391 277.6765 15.69707928 85033
Epoch: Dec 17, 2025 • Age: 20 hours

当前状态

高度 369.4 km
速度 7.69 km/s
星下点 -30.22°S, 142.75°E
发射日期 Jun 24, 2024
运行时间 1.4 years
类型 internet

技术详情

分类 Payload
质量 960.00 kg
干质量 910.00 kg
总质量 960.00 kg
长度 0.30 m
直径 4.10 m
跨度 29.00 m
形状 Box + pan
制造商 SPXS
平台类型 Starlink V2MD
阶段状态 In Orbit
所有者/国家 SPXS/US

大型星座

Loading constellations...